#timestamp,LO_Frequency,Hit,StdDev 
1652234415.6,286046997.0,N
1652234435.5,286047000.9,N
1652234455.3,286046998.1,N
1652234475.1,286046999.8,N
1652234495.9,286047003.5,N
1652234515.7,286047005.3,N
1652234535.5,286047004.5,N
1652234555.4,286047003.7,N
1652234575.2,286047007.1,N
1652234595.1,286047004.9,N
1652234596.0,286047004.9,N
1652234615.8,286047004.9,N
1652234635.6,286047003.8,N
1652234655.5,286047003.2,N
1652234675.3,286047003.2,N
1652234695.1,286047004.4,N
1652234715.9,286047005.0,N
1652234735.7,286047003.5,N
1652234755.6,286047003.5,N
1652234775.4,286047000.2,N
1652234795.2,286047000.5,N
1652234815.1,286047002.7,N
1652234816.0,286047002.7,N
1652234835.8,286047000.1,N
1652234855.6,286047003.3,N
1652234875.5,286047005.5,N
1652234895.3,286047005.6,N
1652234915.2,286047003.4,N
1652234935.9,286047003.4,N
1652234955.7,286047002.4,N
1652234975.6,286047001.5,N
1652234995.4,286047002.2,N
1652235015.2,286047002.7,N
1652235035.1,286047002.7,N
1652235036.0,286047002.7,N
1652235055.8,286047001.5,N
1652235075.7,286047003.8,N
1652235095.5,286047009.1,Y
1652235115.3,286047006.8,P
1652235135.2,286047008.7,P
1652235155.0,286047010.7,P
1652235155.9,286047010.7,Y
1652235175.8,286047001.5,P
1652235195.6,286047003.5,N
1652235215.4,286047005.5,N
1652235235.3,286047005.9,N
1652235255.1,286047001.9,N
1652235275.8,286047001.7,N
1652235295.7,286047001.8,N
1652235315.5,286047000.8,N
1652235335.4,286047003.4,N
1652235355.2,286047002.5,N
1652235375.0,286047001.4,N
1652235375.9,286047001.4,N
1652235395.8,286047000.7,N
1652235415.6,286046999.3,N
1652235435.4,286046995.1,N
1652235455.3,286046995.3,N
1652235475.1,286046993.5,N
1652235495.9,286046991.8,N
1652235515.7,286046990.8,N
1652235535.5,286046990.5,N
1652235555.4,286046988.5,N
1652235575.2,286046993.5,N
1652235595.0,286046997.1,N
1652235595.9,286046997.1,N
1652235615.8,286046995.4,N
1652235635.6,286046993.4,N
1652235655.4,286046995.4,N
1652235675.3,286046995.4,N
1652235695.1,286046997.9,N
1652235715.9,286046998.3,N
1652235735.7,286047000.9,N
1652235755.5,286047001.8,N
1652235775.4,286047001.3,N
1652235795.2,286047002.0,N
1652235815.0,286046998.6,N
1652235815.9,286046998.6,N
1652235835.8,286046998.9,N
1652235855.6,286046998.1,N
1652235875.5,286046998.8,N
1652235895.3,286047001.1,N
1652235915.1,286047003.0,N
1652235935.9,286047001.9,N
1652235955.7,286046999.9,N
1652235975.6,286047000.6,N
1652235995.4,286047000.0,N
1652236015.2,286047000.3,N
1652236035.1,286047000.2,N
1652236036.0,286047000.2,N
1652236055.8,286047000.6,N
1652236075.6,286047002.8,N
1652236095.5,286046998.2,N
1652236115.3,286047000.7,N
1652236135.2,286046998.7,N
1652236155.9,286046998.6,N
1652236175.7,286046998.5,N
1652236195.6,286046998.8,N
1652236215.4,286047002.8,N
1652236235.2,286047001.3,N
1652236255.1,286047002.7,N
1652236256.0,286047002.7,N
1652236275.8,286047000.4,N
1652236295.7,286046999.9,N
1652236315.5,286047000.5,N
1652236335.3,286046999.0,N
1652236355.2,286046999.3,N
1652236375.0,286046997.0,N
1652236375.9,286046997.0,N
1652236395.7,286046996.5,N
1652236415.6,286046997.0,N
1652236435.4,286046997.0,N
1652236455.3,286046995.3,N
1652236475.1,286046995.3,N
1652236476.0,286046995.3,N
1652236495.8,286046997.8,N
1652236515.7,286046995.0,N
1652236535.5,286046998.0,N
1652236555.3,286046999.0,N
1652236575.2,286047000.4,N
1652236595.0,286046998.1,N
1652236595.9,286046998.1,N
1652236615.8,286046998.4,N
1652236635.6,286047000.5,N
1652236655.4,286046998.7,N
1652236675.3,286046999.1,N
1652236695.1,286046998.1,N
1652236715.8,286046996.6,N
1652236735.7,286046996.8,N
1652236755.5,286046998.2,N
1652236775.4,286047000.8,N
1652236795.2,286047002.7,N
1652236815.0,286047001.6,N
1652236815.9,286047001.6,N
1652236835.8,286047003.3,N
1652236855.6,286047002.0,N
1652236875.4,286047005.6,N
1652236895.3,286047003.8,N
1652236915.1,286047002.4,N
1652236935.9,286047003.7,N
1652236955.7,286047004.2,N
1652236975.5,286047005.5,N
1652236995.4,286047006.9,N
1652237015.2,286047005.0,N
1652237035.0,286047004.1,N
1652237035.9,286047004.1,N
1652237055.8,286047005.5,N
1652237075.6,286047002.9,N
1652237095.5,286047005.0,N
1652237115.3,286047005.2,N
1652237135.1,286047004.9,N
1652237155.9,286047009.1,Y
1652237175.7,286047006.3,P
1652237195.5,286047010.2,P
1652237215.4,286047012.2,P
1652237235.2,286047010.2,N
1652237255.1,286047008.2,N
1652237256.0,286047008.2,N
1652237275.8,286047008.7,N
1652237295.6,286047006.1,N
1652237315.5,286047007.0,N
1652237335.3,286047005.0,N
1652237355.1,286047004.6,N
1652237375.9,286047004.7,N
1652237395.7,286047007.1,N
1652237415.6,286047005.7,N
1652237435.4,286047006.8,N
1652237455.2,286047007.6,Y
1652237475.1,286046995.8,P
1652237476.0,286046995.8,N
1652237495.8,286046997.8,N
1652237515.6,286046999.5,N
1652237535.5,286047000.1,N
1652237555.3,286046999.3,N
1652237575.2,286046997.8,N
1652237595.9,286046999.1,N
1652237615.7,286046996.5,N
1652237635.6,286046996.6,N
1652237655.4,286046992.2,N
1652237675.2,286046993.9,N
1652237695.1,286046997.1,N
1652237696.0,286046997.1,N
1652237715.8,286046993.5,N
1652237735.7,286046997.6,N
1652237755.5,286046997.3,N
1652237775.3,286047001.2,N
1652237795.2,286047002.0,N
1652237815.0,286047004.0,N
1652237815.9,286047004.0,N
1652237835.8,286047001.3,N
1652237855.6,286047002.6,N
1652237875.4,286046998.5,N
1652237895.3,286047000.1,N
1652237915.1,286046997.8,N
1652237935.8,286046998.2,N
1652237955.7,286047000.8,N
1652237975.5,286046999.5,N
1652237995.3,286046998.9,N
